KZ-1A R/B (44521 NORAD) Tracking and Keplerian Element Data

This shows tracking and keplerian element data for the satellite.

Feedback or suggestion? Click here.




ElementValue
Catalog44521
NameKZ-1A R/B
Epoch Orbit441
Epoch Day272.07981072
Epoch Year2019
RAAN278.7561
Inclination97.806
Eccentricity0.0240982
Argument of Perigee303.0144
Mean Anonmoly54.8164
Mean Motion15.15683416
Decay Rate3.517E-05
L11 44521U 19058C 19272.07981072 .00003517 00000-0 89968-4 0 9994
L22 44521 97.8060 278.7561 0240982 303.0144 54.8164 15.15683416 4411



Live tracking and technical data element details for KZ-1A R/B (NORAD 44521). KZ-1A R/B can be tracked NOW for your location showing map with azimuth and elevation plus other details from your city location.







IsCatalogInMostPopularTable: catalog: 44521, numindb: 214
Update: records affected: 1



GetName: 44521 KZ-1A R/B

Hit Count: updated at: Sun, 04 Jun 2023 23:52:48 GMT